Weather in Novonikol'skoye

Russia / Tyumen Oblast     57°39′25″N   65°14′15″E
temp.,
°C
wind,
m/s
gust,
m/s
humid.,
%
clouds,
%
prec.,
mm/h
press.,
hPa
HPBL,
m
16 april, fri
fri1623:00+12w3126774 0.0 1015311
02:00+9n5990100 0.0 1016591
05:00+6n5987100 0.4 1020714
08:00+5n4864100 0.0 10231059
11:00+7n57435 0.0 10251544
14:00+8n56345 0.0 10261761
17:00+7n45321 0.0 10271779
20:00+4nne26490 0.0 1028141
17 april, sat
sat1723:00+1ene22595 0.0 102835
02:000s23650 0.0 102846
05:00−1sw24680 0.0 102781
08:00+3wsw37505 0.0 1026333
11:00+8wsw593811 0.0 10241692
14:00+9w693592 0.0 10212107
17:00+9w41040100 0.0 10192160
20:00+6wnw265884 0.0 1017129
18 april, sun
sun1823:00+3w3971100 0.0 1016320
02:00+4w51369100 0.0 1013862
05:00+1nw51564100 1.3 10131544
08:00−3nnw71665100 0.0 10181192
11:00−2n71155100 0.0 10231505
14:000n693136 0.0 10261990
17:00+1n693184 0.0 10282393
20:00−3nne48400 0.0 1032826
19 april, mon
mon1923:00−5nne36465 0.0 10341003
02:00−5nne36525 0.0 10361269
05:00−6n255612 0.0 10371046
08:00−5n354470 0.0 10381336
11:00−2n3533100 0.0 10391914
14:00+1n352790 0.0 10372185
17:00+2n35275 0.0 10372093
20:00−2n11450 0.0 103710
20 april, tue
tue2023:00−3sw225169 0.0 103726
02:00−3wsw385739 0.0 1036190
05:00−2wsw4135233 0.0 1035400
08:00+1w5104553 0.0 1033486
11:00+5w583528 0.0 10311106
14:00+8wnw69355 0.0 10281560
17:00+10wnw510404 0.0 10271691
20:00+6wnw4115324 0.0 1027302